Location: Newark
(45.2500°N, 7.5833°E)
Time: 10:43:33
(UTC+00:00)

First-Move - Pass Details

Date: 25 February 2020
Orbit: 576 x 669 km, 97.6° (Epoch: 05 April)

Event Time Altitude Azimuth Distance (km) Brightness Sun altitude
Rises 18:11:06 0° 221° (SW) 2,910 ? -11.4°
Reaches altitude 10° 18:15:07 10° 258° (WSW) 2,036 ? -12.1°
Maximum altitude 18:16:16 11° 274° (W) 1,987 ? -12.3°
Drops below altitude 10° 18:17:25 10° 289° (WNW) 2,054 ? -12.5°
Sets 18:21:33 0° 326° (NW) 2,995 ? -13.3°
